Location: Unspecified
(54.1780°N, 0.0000°E)
Time: 15:27:25
(UTC+00:00)

Transit 2A - Pass Details

Date: 19 June 2019
Orbit: 594 x 964 km, 66.7° (Epoch: 21 July)

Event Time Altitude Azimuth Distance (km) Brightness Sun altitude
Rises 00:25:14 0° 181° (S) 3,624 - -12.2°
Reaches altitude 10° 00:28:03 10° 172° (S) 2,694 - -12.2°
Exits shadow 00:29:01 14° 167° (SSE) 2,404 8.0 -12.2°
Maximum altitude 00:33:30 31° 113° (ESE) 1,616 7.5 -12.1°
Drops below altitude 10° 00:38:53 10° 54° (NE) 2,658 9.5 -12.0°
Sets 00:41:38 0° 44° (NE) 3,569 10.4 -11.9°
